TimeEDT,TemperatureF,Dew PointF,Humidity,Sea Level PressureIn,VisibilityMPH,Wind Direction,Wind SpeedMPH,Gust SpeedMPH,PrecipitationIn,Events,Conditions,WindDirDegrees,DateUTC
12:15 AM,51.8,26.6,38,30.08,10.0,North,6.9,-,N/A,,Clear,360,2013-03-20 04:15:00
12:35 AM,50.0,26.6,40,30.08,10.0,North,5.8,-,N/A,,Clear,10,2013-03-20 04:35:00
12:55 AM,50.0,28.4,43,30.08,10.0,North,6.9,-,N/A,,Clear,360,2013-03-20 04:55:00
1:15 AM,50.0,24.8,37,30.08,10.0,North,9.2,-,N/A,,Clear,10,2013-03-20 05:15:00
1:35 AM,50.0,23.0,35,30.08,10.0,North,6.9,-,N/A,,Clear,10,2013-03-20 05:35:00
1:55 AM,48.2,23.0,37,30.07,10.0,North,8.1,-,N/A,,Clear,10,2013-03-20 05:55:00
2:15 AM,46.4,23.0,40,30.07,10.0,North,5.8,-,N/A,,Clear,360,2013-03-20 06:15:00
2:55 AM,46.4,21.2,37,30.08,10.0,North,5.8,-,N/A,,Clear,360,2013-03-20 06:55:00
3:15 AM,44.6,21.2,39,30.07,10.0,North,5.8,-,N/A,,Clear,360,2013-03-20 07:15:00
3:35 AM,44.6,21.2,39,30.07,10.0,North,5.8,-,N/A,,Clear,360,2013-03-20 07:35:00
3:55 AM,44.6,21.2,39,30.07,10.0,North,4.6,-,N/A,,Clear,10,2013-03-20 07:55:00
4:15 AM,42.8,21.2,42,30.07,10.0,North,3.5,-,N/A,,Clear,10,2013-03-20 08:15:00
4:35 AM,41.0,26.6,57,30.07,10.0,North,3.5,-,N/A,,Clear,360,2013-03-20 08:35:00
4:55 AM,39.2,30.2,70,30.06,10.0,Calm,Calm,-,N/A,,Clear,0,2013-03-20 08:55:00
5:15 AM,37.4,30.2,75,30.06,10.0,North,3.5,-,N/A,,Clear,10,2013-03-20 09:15:00
5:35 AM,37.4,28.4,70,30.07,10.0,North,3.5,-,N/A,,Clear,10,2013-03-20 09:35:00
5:55 AM,37.4,26.6,65,30.08,10.0,North,4.6,-,N/A,,Clear,10,2013-03-20 09:55:00
6:15 AM,37.4,32.0,81,30.09,10.0,Calm,Calm,-,N/A,,Clear,0,2013-03-20 10:15:00
6:55 AM,37.4,32.0,81,30.10,10.0,Calm,Calm,-,N/A,,Scattered Clouds,0,2013-03-20 10:55:00
7:15 AM,35.6,32.0,87,30.11,10.0,Calm,Calm,-,N/A,,Clear,0,2013-03-20 11:15:00
7:55 AM,35.6,32.0,87,30.12,10.0,North,4.6,-,N/A,,Clear,10,2013-03-20 11:55:00
8:15 AM,37.4,32.0,81,30.14,10.0,Calm,Calm,-,N/A,,Clear,0,2013-03-20 12:15:00
8:35 AM,41.0,33.8,76,30.14,10.0,NNE,3.5,-,N/A,,Clear,30,2013-03-20 12:35:00
8:55 AM,42.8,33.8,70,30.16,10.0,Calm,Calm,-,N/A,,Scattered Clouds,0,2013-03-20 12:55:00
9:15 AM,44.6,30.2,57,30.16,10.0,NE,3.5,-,N/A,,Scattered Clouds,40,2013-03-20 13:15:00
9:35 AM,46.4,21.2,37,30.15,10.0,NE,4.6,-,N/A,,Scattered Clouds,40,2013-03-20 13:35:00
9:55 AM,46.4,21.2,37,30.16,10.0,NE,4.6,-,N/A,,Scattered Clouds,40,2013-03-20 13:55:00
10:15 AM,48.2,21.2,34,30.16,10.0,NE,5.8,-,N/A,,Scattered Clouds,50,2013-03-20 14:15:00
10:35 AM,48.2,21.2,34,30.15,10.0,NE,3.5,-,N/A,,Overcast,50,2013-03-20 14:35:00
10:55 AM,50.0,21.2,32,30.15,10.0,NE,8.1,-,N/A,,Overcast,40,2013-03-20 14:55:00
11:15 AM,50.0,15.8,26,30.14,10.0,East,6.9,-,N/A,,Mostly Cloudy,80,2013-03-20 15:15:00
11:35 AM,51.8,14.0,22,30.14,10.0,North,6.9,-,N/A,,Scattered Clouds,10,2013-03-20 15:35:00
11:55 AM,51.8,15.8,24,30.14,10.0,NE,4.6,-,N/A,,Scattered Clouds,40,2013-03-20 15:55:00
12:15 PM,51.8,14.0,22,30.13,10.0,North,3.5,-,N/A,,Scattered Clouds,360,2013-03-20 16:15:00
12:35 PM,53.6,15.8,22,30.11,10.0,NE,5.8,-,N/A,,Scattered Clouds,40,2013-03-20 16:35:00
12:55 PM,53.6,15.8,22,30.10,10.0,Calm,Calm,-,N/A,,Clear,0,2013-03-20 16:55:00
1:15 PM,53.6,17.6,24,30.09,10.0,Calm,Calm,-,N/A,,Scattered Clouds,0,2013-03-20 17:15:00
1:35 PM,55.4,17.6,23,30.07,10.0,NW,3.5,-,N/A,,Scattered Clouds,310,2013-03-20 17:35:00
1:55 PM,55.4,17.6,23,30.06,10.0,SW,6.9,-,N/A,,Clear,230,2013-03-20 17:55:00
2:15 PM,55.4,19.4,25,30.04,10.0,SSW,8.1,-,N/A,,Scattered Clouds,210,2013-03-20 18:15:00
2:35 PM,57.2,19.4,23,30.02,10.0,SSW,8.1,-,N/A,,Scattered Clouds,210,2013-03-20 18:35:00
2:55 PM,55.4,19.4,25,30.01,10.0,SSW,8.1,-,N/A,,Clear,210,2013-03-20 18:55:00
3:15 PM,57.2,19.4,23,29.98,10.0,SSW,8.1,-,N/A,,Clear,210,2013-03-20 19:15:00
3:35 PM,55.4,21.2,26,29.96,10.0,SSW,4.6,-,N/A,,Clear,210,2013-03-20 19:35:00
3:55 PM,57.2,19.4,23,29.95,10.0,South,3.5,-,N/A,,Clear,170,2013-03-20 19:55:00
4:15 PM,57.2,21.2,25,29.93,10.0,South,5.8,-,N/A,,Clear,190,2013-03-20 20:15:00
4:35 PM,57.2,21.2,25,29.93,10.0,SSW,8.1,-,N/A,,Clear,200,2013-03-20 20:35:00
4:55 PM,59.0,23.0,25,29.93,10.0,WSW,8.1,-,N/A,,Clear,240,2013-03-20 20:55:00
5:15 PM,59.0,24.8,27,29.91,10.0,WSW,11.5,-,N/A,,Clear,250,2013-03-20 21:15:00
5:55 PM,59.0,24.8,27,29.91,10.0,WSW,5.8,-,N/A,,Clear,240,2013-03-20 21:55:00
6:15 PM,59.0,23.0,25,29.90,10.0,WSW,9.2,-,N/A,,Clear,240,2013-03-20 22:15:00
6:55 PM,57.2,23.0,27,29.89,10.0,WSW,9.2,-,N/A,,Clear,240,2013-03-20 22:55:00
7:15 PM,55.4,26.6,33,29.89,10.0,WSW,4.6,-,N/A,,Clear,240,2013-03-20 23:15:00
7:35 PM,53.6,26.6,35,29.89,10.0,SW,5.8,-,N/A,,Clear,230,2013-03-20 23:35:00
7:55 PM,50.0,28.4,43,29.88,10.0,SSW,4.6,-,N/A,,Scattered Clouds,210,2013-03-20 23:55:00
8:15 PM,48.2,30.2,50,29.87,10.0,SSW,3.5,-,N/A,,Scattered Clouds,200,2013-03-21 00:15:00
8:35 PM,46.4,32.0,57,29.87,10.0,SSW,5.8,-,N/A,,Clear,210,2013-03-21 00:35:00
8:55 PM,46.4,32.0,57,29.86,10.0,SSW,4.6,-,N/A,,Clear,210,2013-03-21 00:55:00
9:15 PM,50.0,30.2,47,29.87,10.0,SW,9.2,-,N/A,,Clear,220,2013-03-21 01:15:00
9:35 PM,46.4,30.2,53,29.87,10.0,SW,6.9,-,N/A,,Clear,220,2013-03-21 01:35:00
9:55 PM,46.4,30.2,53,29.87,10.0,WSW,9.2,-,N/A,,Clear,240,2013-03-21 01:55:00
10:15 PM,46.4,26.6,46,29.87,10.0,WSW,8.1,-,N/A,,Clear,240,2013-03-21 02:15:00
10:55 PM,46.4,26.6,46,29.86,10.0,WSW,5.8,-,N/A,,Clear,250,2013-03-21 02:55:00
11:15 PM,44.6,26.6,49,29.86,10.0,WSW,5.8,-,N/A,,Scattered Clouds,240,2013-03-21 03:15:00
11:55 PM,44.6,26.6,49,29.86,10.0,WSW,6.9,-,N/A,,Clear,250,2013-03-21 03:55:00